Showing default

CYGFM07, 41890

Orbit data source: Space-Track

CYGFM07, 41890 is an American payload satellite in LEO that was launched on Thu, 15 Dec 2016 UTC via a PEGASUS XL launch vehicle from the Pegasus Launch, Eastern Range Air Space (ERAS). Payload-class satellites include a variety of spacecraft equipped with specific instruments for various scientific and technological missions. These include communications satellites like Starlink; space stations such as the ISS; scientific satellites like the Hubble; Earth observation satellites from companies like Planet Labs, Umbra, and HawkEye 360; GPS; miniature CubeSats for education and research; and military/defense satellites.

Loading next visibility...
Identifier
41890, 2016-078G
Orbit
LEO
Country
Flag of USUS
Related business
Manufacturer
SST-US
Mission
Extended mission Civil Earth Obs Sci
Bus & Motor
CYGNSS, Unknown motor
Mass
29 kg wet, 29 kg dry
Launch date (UTC)
2016-12-15 (9 years ago)
Launch vehicle
PEGASUS XL
Launch site
Pegasus Launch, Eastern Range Air Space (ERAS)
Object type
Payload
Rocket body
Debris
Shape & HBR
Half Hex Cyl + 2 Pan, 2.5 m
Radar Cross Section
0.450 m², Medium (>0.1 m² and < 1m²)

Expand to show TLE details & history
Last TLE update: 21 hours ago

TLE from 21 hours ago
0 CYGFM07
1 41890U 16078G   25286.76133866  .00025134  00000-0  48603-3 0  9996
2 41890  34.9482  53.7177 0009218  17.6025 342.5014 15.46740727490651
Epoch: 2025-10-13T18:16Z
TLE epoch observation values (Epoch: 2025-10-13T18:16:19.660Z)
Latitude
-0.00002°
Longitude
117.07627°
Altitude
419.178 km
Speed
7.665 km/s
True Right ascension
03h 34m 52s
True Declination
0° 00' 00"
Sunlit
Object was in full shadow at epoch
Visualization orbit readout
Latitude
Unknown
Longitude
Unknown
Altitude
Unknown
Speed
Unknown
Apparent Right ascension
Unknown
Apparent Declination
Unknown
Sunlit
N/A
Visualization observer readout
Local Sidereal Time
10:00:25
Azimuth
Unknown
Elevation
Unknown
Doppler factor
Unknown
Orbital elements
Apogee altitude
435.835 km
Perigee altitude
423.285 km
Semi-major axis
6,807.697 km
Eccentricity
0.00092
Inclination
34.9482°
RAAN
53.7177°
Arg. of periapsis
17.6025°
True anomaly
342.4696°
Mean anomaly
342.5014°
Eccentric anomaly
342.48551°
Mean motion
3.86405 °/min
Orbital period
93.17 mins
BSTAR
0.00048603
Loading maneuver chart data...
Computing Atmospheric mass density...
Loading historical data...
Loading historical data...
Loading historical data...
Loading historical data...
Loading historical data...
Loading historical data...
Loading historical data...

Documentation

Showing up to 5 results
|